Date String (YYYY-MM-DD hh:mm:ss) UTC,Instrument flags,Ambient pressure (hPa),Sample flow (lpm),Bypass flow (lpm),Sample temperature (°C),Ambient temperature (°C),ASC tube jacket temperature (°C),LED temperature (°C),Box temperature (°C),Sample RH (%),Span deviation,Mass concentration (μg/m³),Mass concentration (μg/m³),Mass concentration (μg/m³)
DateTimeUTC,F1_M11,P_M11,Q1_M11,Q2_M11,T1_M11,T2_M11,T3_M11,T4_M11,T5_M11,U1_M11,ZSPAN_M11,X2_M11,X0_M11,X1_M11
2022-05-01 01:00:00,,0823.6,5.00,0.00,27.3,26.5,00.0,36.3,29.1,08.8,0000.0,0004.22,0013.42,0003.38
2022-05-01 01:01:00,,0823.7,5.02,0.00,27.3,26.5,00.0,36.3,29.1,08.8,0000.0,0004.22,0013.53,0003.39
2022-05-01 01:02:00,,0823.6,4.99,0.00,27.3,26.5,00.0,36.3,29.1,08.8,0000.0,0004.19,0012.75,0003.39
2022-05-01 01:03:00,,0823.7,5.01,0.00,27.3,26.5,00.0,36.3,29.1,08.7,0000.0,0004.21,0011.49,0003.41
2022-05-01 01:04:00,,0823.6,4.99,0.00,27.3,26.4,00.0,36.3,29.1,08.7,0000.0,0004.21,0011.05,0003.42
2022-05-01 01:05:00,,0823.6,5.00,0.00,27.3,26.4,00.0,36.3,29.1,08.8,0000.0,0004.26,0011.30,0003.43
2022-05-01 01:06:00,,0823.6,5.01,0.00,27.3,26.5,00.0,36.3,29.1,08.9,0000.0,0004.31,0012.03,0003.42
2022-05-01 01:07:00,,0823.7,4.99,0.00,27.3,26.5,00.0,36.3,29.1,08.9,0000.0,0004.33,0012.29,0003.42
2022-05-01 01:08:00,,0823.6,5.02,0.00,27.3,26.5,00.0,36.3,29.1,08.8,0000.0,0004.35,0012.28,0003.42
2022-05-01 01:09:00,,0823.7,5.00,0.00,27.3,26.5,00.0,36.3,29.0,08.9,0000.0,0004.34,0012.49,0003.41
2022-05-01 01:10:00,,0823.7,4.99,0.00,27.3,26.5,00.0,36.3,29.1,08.9,0000.0,0004.36,0012.65,0003.41
2022-05-01 01:11:00,,0823.7,5.01,0.00,27.3,26.6,00.0,36.3,29.1,09.0,0000.0,0004.35,0012.91,0003.39
2022-05-01 01:12:00,,0823.6,5.01,0.00,27.3,26.6,00.0,36.3,29.1,09.3,0000.0,0004.32,0012.86,0003.37
2022-05-01 01:13:00,,0823.6,5.00,0.00,27.4,26.7,00.0,36.3,29.2,09.3,0000.0,0004.30,0012.36,0003.34
2022-05-01 01:14:00,,0823.7,5.00,0.00,27.4,26.8,00.0,36.3,29.2,09.4,0000.0,0004.31,0012.70,0003.30
2022-05-01 01:15:00,,0823.7,5.00,0.00,27.4,26.8,00.0,36.3,29.2,09.5,0000.0,0004.29,0012.82,0003.27
2022-05-01 01:16:00,,0823.7,4.99,0.00,27.4,26.8,00.0,36.3,29.3,09.5,0000.0,0004.20,0012.26,0003.24
2022-05-01 01:17:00,,0823.7,5.00,0.00,27.5,26.9,00.0,36.3,29.3,09.5,0000.0,0004.12,0011.71,0003.20
2022-05-01 01:18:00,,0823.8,5.01,0.00,27.5,26.9,00.0,36.3,29.3,09.5,0000.0,0004.12,0011.64,0003.17
2022-05-01 01:19:00,,0823.7,5.01,0.00,27.5,26.9,00.0,36.3,29.3,09.5,0000.0,0004.10,0011.15,0003.14
2022-05-01 01:20:00,,0823.7,4.99,0.00,27.5,26.9,00.0,36.4,29.3,09.5,0000.0,0004.06,0010.97,0003.10
2022-05-01 01:21:00,,0823.8,4.99,0.00,27.5,26.9,00.0,36.4,29.3,09.6,0000.0,0003.95,0010.74,0003.00
2022-05-01 01:22:00,,0823.8,5.00,0.00,27.5,26.9,00.0,36.4,29.3,09.6,0000.0,0003.86,0009.96,0002.93
2022-05-01 01:23:00,,0823.8,5.01,0.00,27.5,26.9,00.0,36.4,29.3,09.7,0000.0,0003.81,0010.20,0002.87
2022-05-01 01:24:00,,0823.8,5.01,0.00,27.6,27.0,00.0,36.4,29.3,09.6,0000.0,0003.77,0010.24,0002.83
2022-05-01 01:25:00,,0823.8,4.99,0.00,27.6,27.0,00.0,36.4,29.4,09.7,0000.0,0003.70,0009.77,0002.80
2022-05-01 01:26:00,,0823.8,4.99,0.00,27.6,27.0,00.0,36.4,29.4,09.5,0000.0,0003.66,0009.40,0002.76
2022-05-01 01:27:00,,0823.9,5.01,0.00,27.6,27.0,00.0,36.4,29.4,09.5,0000.0,0003.65,0009.29,0002.73
2022-05-01 01:28:00,,0823.8,5.01,0.00,27.6,27.0,00.0,36.4,29.4,09.5,0000.0,0003.61,0009.10,0002.69
2022-05-01 01:29:00,,0823.8,4.99,0.00,27.6,27.0,00.0,36.5,29.4,09.5,0000.0,0003.53,0008.29,0002.65
2022-05-01 01:30:00,,0823.9,5.00,0.00,27.6,27.0,00.0,36.5,29.4,09.5,0000.0,0003.50,0008.26,0002.60
2022-05-01 01:31:00,,0823.9,5.00,0.00,27.6,27.0,00.0,36.5,29.4,09.6,0000.0,0003.50,0009.01,0002.56
2022-05-01 01:32:00,,0823.9,5.00,0.00,27.7,27.0,00.0,36.5,29.4,09.6,0000.0,0003.56,0009.15,0002.57
2022-05-01 01:33:00,,0823.9,5.00,0.00,27.7,27.1,00.0,36.5,29.4,09.5,0000.0,0003.62,0009.25,0002.58
2022-05-01 01:34:00,,0823.9,5.00,0.00,27.7,27.1,00.0,36.5,29.4,09.6,0000.0,0003.64,0008.91,0002.58
2022-05-01 01:35:00,,0824.0,5.01,0.00,27.7,27.1,00.0,36.5,29.5,09.6,0000.0,0003.64,0008.59,0002.60
2022-05-01 01:36:00,,0823.9,5.00,0.00,27.7,27.1,00.0,36.5,29.5,09.6,0000.0,0003.64,0008.49,0002.61
2022-05-01 01:37:00,,0824.0,4.99,0.00,27.7,27.1,00.0,36.6,29.5,09.6,0000.0,0003.67,0008.61,0002.62
2022-05-01 01:38:00,,0824.0,4.99,0.00,27.7,27.1,00.0,36.6,29.5,09.6,0000.0,0003.67,0008.60,0002.61
2022-05-01 01:39:00,,0824.0,5.00,0.00,27.7,27.1,00.0,36.6,29.5,09.6,0000.0,0003.65,0008.96,0002.62
2022-05-01 01:40:00,,0824.1,4.99,0.00,27.7,27.2,00.0,36.6,29.5,09.6,0000.0,0003.66,0009.77,0002.62
2022-05-01 01:41:00,,0824.1,5.01,0.00,27.8,27.2,00.0,36.6,29.5,09.7,0000.0,0003.67,0010.12,0002.63
2022-05-01 01:42:00,,0824.0,5.02,0.00,27.8,27.2,00.0,36.6,29.5,09.6,0000.0,0003.66,0009.49,0002.63
2022-05-01 01:43:00,,0824.1,5.00,0.00,27.8,27.2,00.0,36.6,29.6,09.7,0000.0,0003.64,0009.30,0002.62
2022-05-01 01:44:00,,0824.1,5.00,0.00,27.8,27.2,00.0,36.6,29.6,09.7,0000.0,0003.59,0009.69,0002.60
2022-05-01 01:45:00,,0824.1,4.99,0.00,27.8,27.2,00.0,36.7,29.6,09.6,0000.0,0003.60,0010.64,0002.61
2022-05-01 01:46:00,,0824.1,4.99,0.00,27.8,27.2,00.0,36.7,29.6,09.6,0000.0,0003.60,0010.66,0002.58
2022-05-01 01:47:00,,0824.1,4.99,0.00,27.8,27.2,00.0,36.7,29.6,09.6,0000.0,0003.59,0010.68,0002.55
2022-05-01 01:48:00,,0824.1,5.00,0.00,27.8,27.2,00.0,36.7,29.6,09.5,0000.0,0003.59,0011.29,0002.52
2022-05-01 01:49:00,,0824.1,5.01,0.00,27.8,27.2,00.0,36.7,29.6,09.5,0000.0,0003.58,0011.57,0002.51
2022-05-01 01:50:00,,0824.1,5.01,0.00,27.9,27.3,00.0,36.7,29.6,09.5,0000.0,0003.60,0011.16,0002.50
2022-05-01 01:51:00,,0824.1,4.99,0.00,27.9,27.3,00.0,36.7,29.6,09.4,0000.0,0003.58,0010.29,0002.49
2022-05-01 01:52:00,,0824.1,5.00,0.00,27.9,27.3,00.0,36.7,29.7,09.4,0000.0,0003.55,0009.90,0002.49
2022-05-01 01:53:00,,0824.1,4.99,0.00,27.9,27.3,00.0,36.7,29.7,09.4,0000.0,0003.57,0009.93,0002.50
2022-05-01 01:54:00,,0824.2,5.00,0.00,27.9,27.3,00.0,36.8,29.7,09.4,0000.0,0003.57,0009.93,0002.50
2022-05-01 01:55:00,,0824.2,5.00,0.00,27.9,27.3,00.0,36.8,29.6,09.4,0000.0,0003.61,0009.78,0002.52
2022-05-01 01:56:00,,0824.2,5.00,0.00,27.9,27.3,00.0,36.8,29.7,09.4,0000.0,0003.61,0009.20,0002.52
2022-05-01 01:57:00,,0824.2,5.01,0.00,27.9,27.3,00.0,36.8,29.7,09.4,0000.0,0003.61,0009.48,0002.51
2022-05-01 01:58:00,,0824.2,5.00,0.00,27.9,27.3,00.0,36.8,29.7,09.4,0000.0,0003.64,0010.08,0002.53
2022-05-01 01:59:00,,0824.2,5.00,0.00,27.9,27.3,00.0,36.8,29.7,09.4,0000.0,0003.65,0009.54,0002.54
